Altus, OK

8:26 AM CST on February 24, 2017 (GMT -0600)
Altus Municipal

Weather History for KAXS - October, 2012

Change the Weather History Date:

Wednesday, October 17, 2012

  Actual Average (KLTS) Record (KLTS)
Temperature  
Mean Temperature 68 °F -  
Max Temperature 78 °F 73 °F 94 °F (2016)
Min Temperature 57 °F 49 °F 36 °F (2013)
Cooling Degree Days 2    
Growing Degree Days 18 (Base 50)    
Moisture  
Dew Point 37 °F    
Average Humidity 35    
Maximum Humidity 73    
Minimum Humidity 17    
Precipitation  
Precipitation 0.00 in - - ()
Sea Level Pressure  
Sea Level Pressure 29.69 in    
Wind  
Wind Speed 14 mph (NNW)    
Max Wind Speed 26 mph    
Max Gust Speed 34 mph    
Visibility 10 miles    
Events      
Averages and records for this station are not official NWS values.
T = Trace of Precipitation, MM = Missing Value Source: NWS Daily Summary

Daily Weather History Graph

Daily Weather History Graph

Search for Another Location

Airport or City:

Trip Planner

Search our weather history database for the weather conditions in past years. The results will help you decide how hot, cold, wet, or windy it might be!

Date:

Astronomy

Oct. 17, 2012 Rise Set
Actual Time 7:45 AM CDT 6:59 PM CDT
Civil Twilight 7:19 AM CDT 7:24 PM CDT
Nautical Twilight 6:50 AM CDT 7:54 PM CDT
Astronomical Twilight 6:21 AM CDT 8:23 PM CDT
Moon 10:13 AM CDT (10/17) 8:44 PM CDT (10/17)
Length of Visible Light 12h 05m
Length of Day
11h 14m
Waxing Crescent, 7% of the Moon is Illuminated
Oct 17
Waxing Crescent
Oct 21
First Quarter
Oct 29
Full
Nov 6
Last Quarter
Nov 13
New

Hourly Weather History & Observations

Time (CDT) Temp. Dew Point Humidity Pressure Visibility Wind Dir Wind Speed Gust Speed Precip Events Conditions
12:15 AM 69.8 °F 55.4 °F 60% 29.55 in 10.0 mi South 13.8 mph - N/A   Clear
12:35 AM 69.8 °F 55.4 °F 60% 29.54 in 10.0 mi South 13.8 mph - N/A   Clear
1:35 AM 68.0 °F 55.4 °F 64% 29.53 in 10.0 mi South 10.4 mph - N/A   Clear
1:55 AM 68.0 °F 55.4 °F 64% 29.52 in 10.0 mi South 11.5 mph - N/A   Clear
2:15 AM 68.0 °F 55.4 °F 64% 29.52 in 10.0 mi South 12.7 mph - N/A   Clear
2:35 AM 66.2 °F 55.4 °F 68% 29.52 in 10.0 mi SSW 11.5 mph - N/A   Clear
3:35 AM 66.2 °F 55.4 °F 68% 29.49 in 10.0 mi SSW 12.7 mph - N/A   Clear
3:55 AM 64.4 °F 55.4 °F 73% 29.49 in 10.0 mi SSW 12.7 mph - N/A   Clear
4:15 AM 64.4 °F 55.4 °F 73% 29.48 in 10.0 mi SSW 10.4 mph - N/A   Clear
5:15 AM 64.4 °F 51.8 °F 64% 29.47 in 10.0 mi SW 10.4 mph - N/A   Clear
5:35 AM 64.4 °F 51.8 °F 64% 29.47 in 10.0 mi SW 11.5 mph - N/A   Clear
5:55 AM 64.4 °F 50.0 °F 59% 29.48 in 10.0 mi SW 11.5 mph - N/A   Clear
6:35 AM 60.8 °F 46.4 °F 59% 29.51 in 10.0 mi West 11.5 mph - N/A   Clear
6:55 AM 60.8 °F 44.6 °F 55% 29.52 in 10.0 mi West 12.7 mph - N/A   Clear
7:15 AM 60.8 °F 42.8 °F 52% 29.52 in 10.0 mi West 10.4 mph - N/A   Clear
7:35 AM 60.8 °F 41.0 °F 48% 29.52 in 10.0 mi West 10.4 mph - N/A   Clear
7:55 AM 59.0 °F 41.0 °F 51% 29.54 in 10.0 mi West 11.5 mph - N/A   Clear
8:15 AM 60.8 °F 41.0 °F 48% 29.55 in 10.0 mi West 9.2 mph - N/A   Clear
8:35 AM 64.4 °F 41.0 °F 42% 29.56 in 10.0 mi NW 11.5 mph - N/A   Clear
9:55 AM 73.4 °F 39.2 °F 29% 29.62 in 10.0 mi North 23.0 mph 29.9 mph N/A   Clear
10:15 AM 73.4 °F 39.2 °F 29% 29.63 in 10.0 mi North 25.3 mph 34.5 mph N/A   Clear
10:35 AM 73.4 °F 39.2 °F 29% 29.63 in 10.0 mi North 23.0 mph 32.2 mph N/A   Clear
11:35 AM 77.0 °F 37.4 °F 24% 29.67 in 10.0 mi North 26.5 mph 31.1 mph N/A   Clear
11:55 AM 78.8 °F 37.4 °F 23% 29.68 in 10.0 mi North 21.9 mph 28.8 mph N/A   Clear
12:35 PM 78.8 °F 35.6 °F 21% 29.70 in 10.0 mi North 24.2 mph 33.4 mph N/A   Clear
12:55 PM 78.8 °F 35.6 °F 21% 29.71 in 10.0 mi North 25.3 mph 31.1 mph N/A   Clear
1:15 PM 78.8 °F 35.6 °F 21% 29.71 in 10.0 mi North 24.2 mph 33.4 mph N/A   Clear
1:35 PM 78.8 °F 33.8 °F 20% 29.72 in 10.0 mi North 24.2 mph 31.1 mph N/A   Clear
1:55 PM 78.8 °F 33.8 °F 20% 29.72 in 10.0 mi North 25.3 mph 33.4 mph N/A   Clear
2:15 PM 78.8 °F 33.8 °F 20% 29.72 in 10.0 mi NNW 23.0 mph 29.9 mph N/A   Clear
2:35 PM 78.8 °F 35.6 °F 21% 29.73 in 10.0 mi NNW 20.7 mph 25.3 mph N/A   Clear
2:55 PM 78.8 °F 33.8 °F 20% 29.73 in 10.0 mi North 24.2 mph 29.9 mph N/A   Clear
3:15 PM 78.8 °F 33.8 °F 20% 29.73 in 10.0 mi North 21.9 mph 28.8 mph N/A   Clear
3:35 PM 78.8 °F 33.8 °F 20% 29.73 in 10.0 mi North 20.7 mph 26.5 mph N/A   Clear
3:55 PM 78.8 °F 32.0 °F 18% 29.74 in 10.0 mi NNW 19.6 mph 27.6 mph N/A   Clear
4:15 PM 78.8 °F 32.0 °F 18% 29.75 in 10.0 mi North 20.7 mph 24.2 mph N/A   Clear
4:35 PM 77.0 °F 30.2 °F 18% 29.75 in 10.0 mi NNW 21.9 mph 28.8 mph N/A   Clear
4:55 PM 77.0 °F 28.4 °F 17% 29.77 in 10.0 mi NNW 18.4 mph 27.6 mph N/A   Clear
5:15 PM 77.0 °F 28.4 °F 17% 29.77 in 10.0 mi North 20.7 mph 27.6 mph N/A   Clear
5:35 PM 75.2 °F 26.6 °F 17% 29.78 in 10.0 mi North 16.1 mph 26.5 mph N/A   Clear
5:55 PM 75.2 °F 26.6 °F 17% 29.78 in 10.0 mi NNW 16.1 mph 21.9 mph N/A   Clear
6:15 PM 73.4 °F 28.4 °F 19% 29.79 in 10.0 mi North 10.4 mph - N/A   Clear
6:35 PM 71.6 °F 28.4 °F 20% 29.79 in 10.0 mi North 11.5 mph - N/A   Clear
6:55 PM 69.8 °F 28.4 °F 21% 29.79 in 10.0 mi North 10.4 mph - N/A   Clear
7:15 PM 64.4 °F 30.2 °F 28% 29.80 in 10.0 mi NNE 8.1 mph - N/A   Clear
7:35 PM 64.4 °F 30.2 °F 28% 29.80 in 10.0 mi NNE 9.2 mph - N/A   Clear
7:55 PM 62.6 °F 30.2 °F 30% 29.81 in 10.0 mi North 8.1 mph - N/A   Clear
8:15 PM 60.8 °F 30.2 °F 31% 29.83 in 10.0 mi NNE 6.9 mph - N/A   Clear
8:35 PM 60.8 °F 30.2 °F 31% 29.84 in 10.0 mi NNE 8.1 mph - N/A   Clear
8:55 PM 60.8 °F 28.4 °F 29% 29.85 in 10.0 mi NNE 8.1 mph - N/A   Clear
9:15 PM 59.0 °F 28.4 °F 31% 29.85 in 10.0 mi North 9.2 mph - N/A   Clear
9:35 PM 57.2 °F 28.4 °F 33% 29.86 in 10.0 mi North 9.2 mph - N/A   Clear
9:55 PM 59.0 °F 28.4 °F 31% 29.87 in 10.0 mi NNE 9.2 mph - N/A   Clear
10:15 PM 60.8 °F 26.6 °F 27% 29.87 in 10.0 mi NNE 13.8 mph - N/A   Clear
10:35 PM 60.8 °F 24.8 °F 25% 29.88 in 10.0 mi NNE 11.5 mph - N/A   Clear
10:55 PM 60.8 °F 24.8 °F 25% 29.89 in 10.0 mi NNE 10.4 mph - N/A   Clear
11:15 PM 60.8 °F 23.0 °F 23% 29.89 in 10.0 mi NNE 12.7 mph - N/A   Clear
11:35 PM 60.8 °F 23.0 °F 23% 29.89 in 10.0 mi NE 11.5 mph - N/A   Clear
11:55 PM 59.0 °F 24.8 °F 27% 29.90 in 10.0 mi NNE 10.4 mph - N/A   Clear